Regional Weather Roundup
Issued by NWS

Home | Current Version | Previous Version | Text Only | Print | Product List | Glossary Off
Versions: 1 2 3 4 5 6 7 8 9 10 11 12 13 14 15 16 17 18 19 20 21 22 23 24 25 26 27 28 29 30 31 32 33 34 35 36 37 38 39 40 41 42 43 44 45 46 47 48 49 50

000
ASUS43 KIND 231859
RWRIN

WEATHER ROUNDUP FOR INDIANA
NATIONAL WEATHER SERVICE INDIANAPOLIS IN
300 PM EDT WED MAY 23 2018

NOTE: "FAIR" INDICATES FEW OR NO CLOUDS BELOW 12,000 FEET WITH NO
SIGNIFICANT WEATHER AND/OR OBSTRUCTIONS TO VISIBILITY.

* - STATION DOES NOT REPORT WEATHER SUCH AS PRECIPITATION OR FOG.

+ - STATION NOT QUALITY CONTROLLED BY THE NATIONAL WEATHER SERVICE.
    USE DATA WITH CAUTION...ESPECIALLY DEWPOINT AND RELATIVE
    HUMIDITY OBSERVATIONS.

INZ001>003-010>013-019-020-232000-
NORTHWEST INDIANA

CITY           SKY/WX    TMP DP  RH WIND       PRES   REMARKS
GARY /AIRPORT/ MOSUNNY   70  57  64 N6        30.22S
KNOX *+        FAIR      77  54  44 CALM      30.19S
LA PORTE +     FAIR      75  55  49 CALM      30.21S
MICHIGAN CITY+ FAIR      68  55  64 N7        30.22S
MONTICELLO +   FAIR      79  48  33 N6        30.18S
RENSSELAER +   FAIR      77  37  24 NE3       30.19F

$$

LMZ046-743>745-232000-
SOUTHERN LAKE MICHIGAN

STATION/POSITION TIME  TEMP    WIND        PRES    WAVE
                       AIR SEA DIR/SP/G            HT
                 (UTC) (F)     (DEG/KT/KT) (MB)    (FT)
BURNS HARBOR     1840   59        CALM     1023.7R
MICHIGAN CITY    1830   53      20/  7/  7   N/A
5NW MICH CITY    1850   53 57   40/  6/  8   N/A     1

$$

INZ004-005-014>016-021>024-232000-
NORTH CENTRAL INDIANA

CITY           SKY/WX    TMP DP  RH WIND       PRES   REMARKS
ELKHART        FAIR      81  54  39 CALM      30.19S
GOSHEN         FAIR      76  57  51 N3        30.19S
PERU/GRISSOM   FAIR      77  55  46 CALM      30.18S
ROCHESTER +    FAIR      81  54  39 CALM      30.19S
SOUTH BEND     FAIR      76  53  44 VRB3      30.20S
WARSAW +       FAIR      75  54  46 NE3       30.19S

$$

INZ006>009-017-018-025>027-232000-
NORTHEAST INDIANA

CITY           SKY/WX    TMP DP  RH WIND       PRES   REMARKS
ANGOLA *+      FAIR      75  54  46 VRB6      30.19S
FORT WAYNE     FAIR      77  54  44 E6        30.19S
KENDALLVILLE + FAIR     N/A N/A N/A N3        30.20S

$$

INZ028-029-035-036-043>045-051>053-232000-
WEST CENTRAL INDIANA

CITY           SKY/WX    TMP DP  RH WIND       PRES   REMARKS
CRAWFORDSVL +  FAIR      77  55  47 NE8       30.17S
GREENCASTLE +  FAIR      79  54  41 N3        30.17S
LAFAYETTE      FAIR      76  58  53 E7        30.17F
TERRE HAUTE    FAIR      83  56  39 VRB5      30.15F

$$

INZ030>032-037>040-046>048-054>057-064-065-232000-
CENTRAL INDIANA

CITY           SKY/WX    TMP DP  RH WIND       PRES   REMARKS
COLUMBUS       MOSUNNY   77  52  41 N3        30.16S
FRANKFORT +    FAIR      82  56  41 CALM      30.20S
GREENWOOD *+   FAIR      79  56  45 NE5       30.17S
INDIANAPOLIS   FAIR      81  56  42 VRB7      30.16S
-EAGLE CREEK   FAIR      79  55  43 NE9       30.16S
KOKOMO +       FAIR      78  56  46 E10       30.19F
MT COMFORT *+  FAIR      79  59  50 CALM      30.17S
SHELBYVILLE    FAIR      82  54  37 NE10      30.15F
ZIONSVILLE +   FAIR      77  54  43 E8        30.18S

$$

INZ033-034-041-042-049-050-058-059-232000-
EAST CENTRAL INDIANA

CITY           SKY/WX    TMP DP  RH WIND       PRES   REMARKS
MUNCIE         FAIR      80  52  37 E9        30.18S
RICHMOND +     FAIR      73  59  60 E8        30.18S

$$

INZ060-061-067>069-081>083-085>088-232000-
SOUTHWEST INDIANA

CITY           SKY/WX    TMP DP  RH WIND       PRES   REMARKS
EVANSVILLE     FAIR      85  63  47 N8        30.12F
HUNTINGBURG +  FAIR      82  63  52 N9        30.12F

$$

INZ062-063-066-070>080-084-089>092-232000-
SOUTH CENTRAL AND SOUTHEAST INDIANA

CITY           SKY/WX    TMP DP  RH WIND       PRES   REMARKS
BLOOMINGTON    FAIR      82  60  47 VRB6      30.15F
FRENCH LICK *+ FAIR      81  43  26 NE7       30.14S

$$




USA.gov is the U.S. government's official web portal to all federal, state and local government web resources and services.